Voltar ao catálogo

STARLINK-6328

AtivoComunicaçõesVLEO
NORAD 56523·PAYLOAD·🇺🇸 United States

Lançado May 14, 2023 de Cape Canaveral Space Force Station

Loading…

Próximas Passagens (próximas 24 horas)

TLE

AtualizadoSource: CelesTrak SupGP

Época: Sep 14, 2026, 20:46 UTC

1 56523C 23065W   26257.86576389  .00026780  00000+0  97003-3 0  2572
2 56523  43.0017 224.5301 0001697 261.2479 213.9185 15.27562362    18

Acompanhe STARLINK-6328 em tempo real com AllMySat

Download on the App Store